Location: *
(60.1759°S, 155.0663°W)
Time: 13:21:47
(UTC+00:00)

Cosmos 1937 Rocket - Pass Details

Date: 17 September 2019
Orbit: 747 x 780 km, 74.0° (Epoch: 16 October)

Event Time Altitude Azimuth Distance (km) Brightness Sun altitude
Rises 14:50:17 0° 345° (NNW) 3,206 6.4 -12.3°
Reaches altitude 10° 14:52:39 10° 349° (N) 2,290 5.7 -12.0°
Maximum altitude 14:57:44 58° 66° (ENE) 899 4.1 -11.4°
Drops below altitude 10° 15:02:55 10° 143° (SE) 2,329 6.8 -10.8°
Sets 15:05:20 0° 147° (SSE) 3,265 7.6 -10.5°
